Location: Gleizolles
(44.4833°N, 6.7667°E)
Time: 11:27:36
(UTC+00:00)

Transit 2A - Pass Details

Date: 26 June 2024
Orbit: 591 x 960 km, 66.7° (Epoch: 17 July)

Event Time Altitude Azimuth Distance (km) Brightness Sun altitude
Rises 21:40:06 0° 330° (NNW) 3,528 11.2 -17.2°
Reaches altitude 10° 21:42:39 10° 335° (NNW) 2,623 10.1 -17.4°
Maximum altitude 21:48:42 53° 52° (NE) 1,159 6.9 -17.9°
Enters shadow 21:52:37 23° 120° (ESE) 1,926 7.6 -18.2°
